Home   Weather   Las Cruces   Past weeks

Flag for USA Past Weather in Las Cruces, New Mexico, USA — Yesterday and Last 2 Weeks

83 °F


Feels Like: 80 °F
Forecast: 54 / 84 °F
Wind: 5 mph from Southeast

Location: Las Cruces International

Current Time: Oct 24, 2016 at 5:50:36 PM

Latest Report: Oct 24, 2016 at 5:15 PM

Visibility: 10 mi

Pressure: 30.19 "Hg (26.39 "Hg at 1187m altitude)

Humidity: 16%

Dew Point: 32 °F

Location of Las CrucesLocation

Past Weather in Las Cruces — Graph


Las Cruces Temperature Yesterday

Maximum temperature yesterday: 84 °F (at 3:15 PM)
Minimum temperature yesterday: 50 °F (at 7:15 AM)
Average temperature yesterday: 66 °F

High & Low Weather Summary for the Past Weeks

High88 °F (Oct 15, 3:35 PM)94% (Oct 10, 7:35 AM)30.42 "Hg (Oct 10, 7:35 AM)
Low45 °F (Oct 21, 7:15 AM)8% (Oct 13, 4:55 PM)29.92 "Hg (Oct 17, 4:55 PM)
Average68 °F34%30.16 "Hg
* Reported Oct 9 4:15 PM — Oct 24 4:35 PM, Las Cruces, Weather by CustomWeather, © 2016

Note: Actual official high and low records may vary slightly from our data, if they occured in-between our weather recording intervals... More about our weather records


Las Cruces Weather History for the Previous 24 Hours

Scroll right to see more
Time TempWeatherWind HumidityBarometerVisibility
4:35 PM
Mon, Oct 24
83 °FSunny.7 mph15%30.20 "Hg10 mi
4:15 PM83 °FSunny.6 mph16%30.20 "Hg10 mi
3:55 PM84 °FSunny.5 mph16%30.21 "Hg10 mi
3:35 PM84 °FSunny.3 mph15%30.22 "Hg10 mi
3:15 PM84 °FSunny.5 mph15%30.23 "Hg10 mi
2:55 PM85 °FSunny.No wind15%30.23 "Hg10 mi
2:35 PM84 °FSunny.5 mph16%30.23 "Hg10 mi
2:15 PM83 °FSunny.3 mph17%30.24 "Hg10 mi
1:55 PM84 °FSunny.No wind17%30.25 "Hg10 mi
1:15 PM81 °FSunny.No wind19%30.27 "Hg10 mi
12:55 PM80 °FSunny.3 mph20%30.28 "Hg10 mi
12:35 PM78 °FSunny.No wind21%30.30 "Hg10 mi
12:15 PM78 °FSunny.No wind23%30.30 "Hg10 mi
11:55 AM77 °FSunny.No wind23%30.31 "Hg10 mi
11:35 AM76 °FSunny.No wind24%30.31 "Hg10 mi
11:15 AM74 °FSunny.3 mph25%30.31 "Hg10 mi
10:55 AM73 °FSunny.No wind26%30.31 "Hg10 mi
10:35 AM72 °FSunny.No wind27%30.31 "Hg10 mi
10:15 AM71 °FSunny.5 mph27%30.31 "Hg10 mi
9:55 AM71 °FSunny.3 mph28%30.31 "Hg10 mi
9:35 AM70 °FSunny.No wind29%30.31 "Hg10 mi
9:15 AM68 °FSunny.No wind31%30.31 "Hg10 mi
8:55 AM67 °FSunny.3 mph32%30.31 "Hg10 mi
8:35 AM63 °FSunny.No wind38%30.30 "Hg10 mi
8:15 AM58 °FSunny.No wind45%30.29 "Hg10 mi
7:55 AM53 °FSunny.3 mph51%30.28 "Hg10 mi
7:35 AM50 °FSunny.No wind55%30.27 "Hg10 mi
7:15 AM49 °FClear.No wind56%30.27 "Hg10 mi
6:55 AM50 °FClear.No wind53%30.26 "Hg10 mi
6:35 AM51 °FClear.No wind53%30.25 "Hg10 mi
6:15 AM51 °FClear.3 mph54%30.25 "Hg10 mi
5:55 AM51 °FClear.3 mph53%30.25 "Hg10 mi
5:15 AM55 °FClear.5 mph47%30.24 "Hg10 mi
4:55 AM53 °FClear.3 mph51%30.23 "Hg10 mi
4:35 AM51 °FClear.5 mph50%30.23 "Hg10 mi
4:15 AM51 °FClear.5 mph50%30.23 "Hg10 mi
3:55 AM52 °FClear.3 mph48%30.23 "Hg10 mi
3:35 AM53 °FClear.No wind47%30.22 "Hg10 mi
3:15 AM55 °FClear.No wind45%30.22 "Hg10 mi
2:55 AM61 °FClear.5 mph37%30.23 "Hg10 mi
2:35 AM61 °FClear.5 mph37%30.23 "Hg10 mi
2:15 AM61 °FClear.3 mph37%30.23 "Hg10 mi
1:55 AM63 °FClear.No wind35%30.23 "Hg10 mi
1:35 AM58 °FClear.No wind43%30.23 "Hg10 mi
1:15 AM59 °FClear.No wind39%30.23 "Hg10 mi
12:55 AM63 °FClear.No wind34%30.23 "Hg10 mi
12:15 AM60 °FClear.5 mph36%30.22 "Hg10 mi
11:55 PM
Sun, Oct 23
60 °FClear.5 mph35%30.23 "Hg10 mi
11:35 PM61 °FClear.6 mph34%30.22 "Hg10 mi
11:15 PM63 °FClear.7 mph32%30.23 "Hg10 mi
10:55 PM61 °FClear.7 mph34%30.22 "Hg10 mi
10:15 PM62 °FClear.5 mph33%30.21 "Hg10 mi
9:55 PM63 °FClear.No wind32%30.21 "Hg10 mi
9:35 PM61 °FClear.No wind33%30.21 "Hg10 mi
9:15 PM64 °FClear.5 mph31%30.20 "Hg10 mi
8:55 PM64 °FClear.6 mph30%30.20 "Hg10 mi
8:35 PM65 °FClear.5 mph30%30.19 "Hg10 mi
8:15 PM67 °FClear.5 mph28%30.19 "Hg10 mi
7:55 PM69 °FClear.6 mph27%30.18 "Hg10 mi
7:35 PM72 °FClear.6 mph25%30.18 "Hg10 mi
7:15 PM74 °FClear.6 mph24%30.18 "Hg10 mi
6:55 PM75 °FClear.6 mph22%30.16 "Hg10 mi
6:35 PM77 °FClear.5 mph20%30.16 "Hg10 mi
6:15 PM80 °FSunny.3 mph18%30.16 "Hg10 mi
5:55 PM82 °FSunny.No wind16%30.16 "Hg10 mi
5:35 PM83 °FSunny.3 mph16%30.15 "Hg10 mi
5:15 PM83 °FSunny.No wind16%30.15 "Hg10 mi
Weather by CustomWeather, © 2016

See weather overviewHow to use our weather pages